Flag for Russia Weather past 2 weeks in Yakutsk, Russia

Now
54 °F

Scattered clouds.


Feels Like: 54 °F
Forecast: 40 / 52 °F
Wind: 1 mph from East

Location: Jakutsk

Current Time: May 27, 2015 at 9:13:43 PM

Latest Report: May 27, 2015 at 8:30 PM


Visibility: N/A

Pressure: 29.47 "Hg

Humidity: 44%

Dew point: 32 °F

Location of YakutskLocation

Historic Weather in Yakutsk — Graph

°F

Yakutsk temperature yesterday

Maximum temperature yesterday: 68 °F (at 12:00 PM)
Minimum temperature yesterday: 41 °F (at 1:00 AM)
Average temperature yesterday: 55 °F

Past Weeks' High & Low Weather Summary

 TemperatureHumidityPressure
High68 °F (May 26, 12:00 PM)100% (May 21, 1:30 AM)29.98 "Hg (May 21, 1:30 AM)
Low25 °F (May 13, 7:30 PM)19% (May 18, 7:30 PM)29.15 "Hg (May 12, 8:00 PM)
Average45 °F53%29.63 "Hg
* Reported May 12 8:00 PM — May 27 8:00 PM, Yakutsk, Weather by CustomWeather, © 2015

Note: Actual official high and low records may vary slightly from our data, if they occured in-between our weather recording intervals... More about our weather records

Advertising

Yakutsk weather history for previous 24 hours

 ConditionsComfort  
Time TempWeatherWind HumidityBarometerVisibility
8:00 PM
Wed, May 27
55 °FPartly sunny.3 mph41%29.47 "HgN/A
7:30 PM57 °FPartly sunny.6 mph31%29.47 "HgN/A
7:00 PM57 °FScattered clouds.6 mph31%29.47 "HgN/A
6:30 PM59 °FScattered clouds.3 mph27%29.47 "HgN/A
6:00 PM59 °FSunny.3 mph25%29.47 "Hg10 mi
5:30 PM59 °FSunny.6 mph25%29.47 "Hg10 mi
5:00 PM59 °FSunny.6 mph25%29.47 "Hg10 mi
4:30 PM59 °FSunny.6 mph25%29.47 "Hg10 mi
4:00 PM59 °FSunny.6 mph25%29.47 "Hg10 mi
3:30 PM59 °FScattered clouds.8 mph27%29.47 "HgN/A
3:00 PM59 °FScattered clouds.6 mph29%29.50 "HgN/A
2:30 PM57 °FScattered clouds.8 mph29%29.50 "HgN/A
2:00 PM57 °FScattered clouds.8 mph29%29.50 "HgN/A
1:30 PM57 °FScattered clouds.8 mph33%29.50 "HgN/A
1:00 PM55 °FScattered clouds.6 mph36%29.50 "HgN/A
12:30 PM55 °FScattered clouds.3 mph33%29.50 "HgN/A
12:00 PM55 °FScattered clouds.6 mph33%29.50 "HgN/A
11:30 AM54 °FSunny.6 mph35%29.53 "Hg10 mi
11:00 AM54 °FSunny.8 mph35%29.53 "Hg10 mi
10:30 AM54 °FSunny.3 mph35%29.53 "Hg10 mi
10:00 AM54 °FSunny.6 mph38%29.53 "Hg10 mi
9:30 AM52 °FSunny.6 mph47%29.53 "Hg10 mi
9:00 AM52 °FPassing clouds.6 mph54%29.53 "HgN/A
8:30 AM50 °FSunny.6 mph54%29.56 "Hg10 mi
8:00 AM50 °FSunny.3 mph54%29.56 "Hg10 mi
7:30 AM48 °FSunny.3 mph58%29.56 "Hg10 mi
7:00 AM46 °FSunny.6 mph62%29.56 "Hg10 mi
6:30 AM45 °FSunny.6 mph71%29.53 "Hg10 mi
6:00 AM43 °FSunny.6 mph76%29.53 "Hg10 mi
5:30 AM43 °FSunny.6 mph76%29.53 "Hg10 mi
5:00 AM41 °FSunny.8 mph81%29.53 "Hg10 mi
4:30 AM41 °FSunny.6 mph87%29.53 "Hg10 mi
4:00 AM41 °FSunny.6 mph87%29.53 "Hg10 mi
3:30 AM41 °FSunny.6 mph93%29.53 "Hg10 mi
3:00 AM43 °FSunny.6 mph93%29.53 "Hg10 mi
2:30 AM43 °FClear.6 mph93%29.53 "Hg10 mi
2:00 AM43 °FClear.8 mph93%29.53 "Hg10 mi
1:30 AM43 °FPassing clouds.3 mph100%29.50 "HgN/A
1:00 AM45 °FPassing clouds.3 mph93%29.50 "HgN/A
12:30 AM45 °FPassing clouds.3 mph93%29.50 "HgN/A
12:00 AM46 °FPassing clouds.3 mph87%29.50 "HgN/A
11:30 PM
Tue, May 26
46 °FPassing clouds.3 mph93%29.50 "HgN/A
11:00 PM48 °FPassing clouds.6 mph87%29.50 "HgN/A
10:30 PM48 °FSprinkles. Passing clouds.8 mph87%29.50 "HgN/A
10:00 PM48 °FSprinkles. Passing clouds.8 mph87%29.50 "HgN/A
9:30 PM50 °FSprinkles. Partly sunny.10 mph88%29.50 "HgN/A
9:00 PM50 °FSprinkles. Scattered clouds.6 mph94%29.47 "HgN/A
Weather by CustomWeather, © 2015

See weather overviewHow to use our weather pages